Regional Weather Roundup
Issued by NWS

Home | Current Version | Previous Version | Text Only | Print | Product List | Glossary Off
Versions: 1 2 3 4 5 6 7 8 9 10 11 12 13 14 15 16 17 18 19 20 21 22 23 24 25 26 27 28 29 30 31 32 33 34 35 36 37 38 39 40 41 42 43 44 45 46 47 48 49 50

000
ASUS43 KLMK 261410
RWRKY
KENTUCKY REGIONAL WEATHER ROUNDUP
NATIONAL WEATHER SERVICE LOUISVILLE KY
1000 AM EDT TUE MAY 26 2015

NOTE "FAIR" INDICATES FEW OR NO CLOUDS BELOW 12,000 FEET
WITH NO SIGNIFICANT WEATHER AND/OR OBSTRUCTIONS TO VISIBILITY.

KYZ001>023-026-027-061>063-070>075-261500-
WESTERN AND SOUTH CENTRAL KENTUCKY

CITY           SKY/WX    TMP DP  RH WIND       PRES   REMARKS
PADUCAH        CLOUDY    73  66  78 S10G16    29.98R
HENDERSON      CLOUDY    73  64  73 S16       29.94F
OWENSBORO      MOSUNNY   77  68  73 S20G28    30.00F
HOPKINSVILLE   CLOUDY    73  68  83 S14G24    30.02F
BOWLING GREEN  PTSUNNY   77  67  71 S17       30.08F
GLASGOW        PTSUNNY   76  66  72 S13G20    30.10S
$$

KYZ024-025-028>034-038-045-046-053-261500-
NORTH CENTRAL KENTUCKY

CITY           SKY/WX    TMP DP  RH WIND       PRES   REMARKS
LOUISVILLE/SDF PTSUNNY   75  65  70 S17       30.08F
LOUISVILLE/LOU MOSUNNY   76  66  71 S10       30.08F
FORT KNOX      MOSUNNY   75  66  74 S17G24    30.07R
$$

KYZ035>037-039>044-047>052-055>060-089>105-261500-
NORTHEAST KENTUCKY

CITY           SKY/WX    TMP DP  RH WIND       PRES   REMARKS
LEXINGTON      CLOUDY    73  67  81 S10       30.14F
COVINGTON      MOSUNNY   74  65  73 S13       30.11F
FRANKFORT      CLOUDY    74  65  73 S10       30.11F
$$

KYZ054-064>069-076>088-106>120-261500-
SOUTHEAST KENTUCKY

CITY           SKY/WX    TMP DP  RH WIND       PRES   REMARKS
JACKSON        MOSUNNY   74  64  71 VRB6      30.20F
LONDON         MOSUNNY   76  63  64 S13G22    30.19F
SOMERSET       CLOUDY    73  64  73 S12G18    30.18F
MIDDLESBORO    CLOUDY    71  66  85 CALM      30.23F
MONTICELLO     MOSUNNY   78  68  71 S13G23    30.19S
$$



USA.gov is the U.S. government's official web portal to all federal, state and local government web resources and services.